Location: Anglesey
(53.1800°N, 4.2200°W)
Time: 08:13:03
(UTC+00:00)

OTV 5 (USA 277) - Visible Passes

Search period start: 18 January 2018 00:00
Search period end: 28 January 2018 00:00
Orbit: 404 x 417 km, 43.0° (Epoch: 07 September)

Date Brightness Start Highest point End Pass type
(mag) Time Alt. Az. Time Alt. Az. Time Alt. Az.
26 Jan ? 18:56:31 10° SSW 18:58:00 12° SSE 18:58:01 12° SSE visible
27 Jan ? 18:06:20 10° S 18:07:10 11° SSE 18:07:59 10° SSE visible
27 Jan ? 19:41:36 10° SW 19:42:09 12° SSW 19:42:09 12° SSW visible
